Content
SEND FEEDBACK

Daily
Averages
Monthly
Summary
United States of America

ROCK HILL, NEW YORK


Home > North America > United States > New York
Elevation: 384 meters     Latitude: 41 35N     Longitude: 074 37W

WEATHER
 
SELECT A DAY
Number of Records: 444,047;   Date Range: 1/1/95 - 9/18/14
 
SHARE

PRINT THIS DATA

[ ← Previous Day ]
WEATHER ALMANAC - 3 FEBRUARY, 2014
[ Next Day → ]
[ °F ]   °C
Weather ElementAverageHighLow
Temperature-3.9 °C-1 °C (12:35 am)-9 °C (10:55 pm)
Dewpoint-8.1 °C-6 °C (12:35 am)-14 °C (11:35 pm)
Humidity73.3 %80 % (7:55 am)64 % (1:15 am)
Barometer1020.7 hPa1024.7 hPa (11:55 pm)1018.6 hPa (1:15 am)
Wind Speed9.5 km/h18.5 km/h (1:35 am)
Wind Gust25.9 km/h (1:55 am)
Weather ElementAverage
Visibility10.1 km
Wind DirectionWSW (256.1 °)

Weather ElementTotal
Precipitation---
Heating Degree Days23.3 (Base 18.3)
Averaged from 71 records on 3 February, 2014
WEATHER CONDITIONS BREAKOUT
WIND DIRECTION BREAKOUT
WEATHER BY HOUR - 3 FEBRUARY, 2014
[ °F ]   °C
Local TimeTemperatureDewpointHumidityBarometerVisibilityWind DirectionWind SpeedGust SpeedPrecipitationEventsConditions
12:35 AM-1 °C-6 °C69 %1019 hPa16.1 kmNW (320°)11.1 km/hOvercast
12:55 AM-1 °C-6 °C69 %1019 hPa16.1 kmNNW (330°)13 km/hOvercast
1:15 AM-1 °C-7 °C64 %1018.6 hPa16.1 kmNNW (340°)16.7 km/hMostly Cloudy
1:35 AM-2 °C-7 °C69 %1019 hPa16.1 kmNorth (350°)18.5 km/hOvercast
1:55 AM-2 °C-7 °C69 %1019.3 hPa16.1 kmNNW (340°)18.5 km/h25.9 km/hOvercast
2:15 AM-2 °C-7 °C69 %1019.6 hPa16.1 kmNorth (350°)18.5 km/hOvercast
2:35 AM-2 °C-7 °C69 %1019.6 hPa16.1 kmNNW (340°)14.8 km/hOvercast
2:55 AM-2 °C-7 °C69 %1019.3 hPa16.1 kmNW (320°)14.8 km/hOvercast
3:15 AM-2 °C-7 °C69 %1019.3 hPa16.1 kmNNW (330°)9.3 km/hMostly Cloudy
3:35 AM-2 °C-7 °C69 %1019.3 hPa16.1 kmNNW (330°)11.1 km/hOvercast
3:55 AM-2 °C-7 °C69 %1019.3 hPa16.1 kmNorth (350°)13 km/hOvercast
4:15 AM-2 °C-7 °C69 %1019 hPa16.1 kmNNW (330°)13 km/hMostly Cloudy
4:35 AM-2 °C-7 °C69 %1019.3 hPa16.1 kmNW (320°)11.1 km/hMostly Cloudy
4:55 AM-2 °C-7 °C69 %1019.6 hPa16.1 kmNW (320°)11.1 km/hOvercast
5:15 AM-2 °C-7 °C69 %1019.3 hPa16.1 kmNNW (340°)11.1 km/hOvercast
5:35 AM-2 °C-7 °C69 %1019.3 hPa16.1 kmNNW (330°)11.1 km/hOvercast
5:55 AM-2 °C-7 °C69 %1019.3 hPa16.1 kmNNW (340°)11.1 km/hOvercast
6:15 AM-2 °C-8 °C64 %1019 hPa16.1 kmNNW (330°)7.4 km/hMostly Cloudy
6:35 AM-2 °C-7 °C69 %1019 hPa11.3 kmCalmOvercast
6:55 AM-3 °C-7 °C74 %1018.6 hPa3.2 kmNorth (350°)5.6 km/hOvercast
7:15 AM-3 °C-7 °C74 %1018.6 hPa3.2 kmCalmOvercast
7:35 AM-3 °C-7 °C74 %1019 hPa2.9 kmCalmOvercast
7:55 AM-3 °C-6 °C80 %1019.3 hPa1.3 kmCalmOvercast
8:15 AM-3 °C-6 °C80 %1019.3 hPa1.3 kmCalmOvercast
8:35 AM-3 °C-6 °C80 %1020 hPa1.3 kmCalmOvercast
8:55 AM-3 °C-6 °C80 %1020.3 hPa1.3 kmEast (90°)11.1 km/hOvercast
9:15 AM-3 °C-6 °C80 %1020.7 hPa1.3 kmCalmOvercast
9:35 AM-3 °C-6 °C80 %1020.7 hPa1.6 kmESE (120°)9.3 km/hOvercast
9:55 AM-3 °C-6 °C80 %1020.7 hPa1.9 kmEast (100°)11.1 km/hOvercast
10:15 AM-3 °C-6 °C80 %1020.7 hPa1.3 kmEast (90°)7.4 km/hOvercast
10:35 AM-3 °C-6 °C80 %1020.7 hPa1.3 kmEast (100°)7.4 km/hOvercast
10:55 AM-3 °C-6 °C80 %1020.3 hPa1.6 kmEast (90°)7.4 km/hOvercast
11:15 AM-3 °C-7 °C74 %1020.3 hPa1.6 kmENE (60°)9.3 km/hOvercast
11:35 AM-3 °C-7 °C74 %1020 hPa1.6 kmNE (40°)7.4 km/hOvercast
11:55 AM-3 °C-6 °C80 %1020 hPa1.3 kmCalmOvercast
12:15 PM-3 °C-6 °C80 %1019.3 hPa1.6 kmCalmOvercast
12:35 PM-3 °C-6 °C80 %1019.3 hPa1.3 kmNNW (340°)7.4 km/hOvercast
12:55 PM-3 °C-6 °C80 %1019.3 hPa0.8 kmNNW (340°)13 km/hOvercast
1:15 PM-3 °C-6 °C80 %1019 hPa1.3 kmNNW (340°)14.8 km/hOvercast
1:35 PM-3 °C-6 °C80 %1019 hPa0.8 kmNNW (330°)14.8 km/hOvercast
1:55 PM-3 °C-6 °C80 %1019.3 hPa1.3 kmNNW (330°)11.1 km/hOvercast
2:15 PM-3 °C-7 °C74 %1019.3 hPa1.3 kmNNW (330°)11.1 km/hOvercast
2:35 PM-3 °C-7 °C74 %1019.6 hPa1.6 kmNNW (330°)11.1 km/hOvercast
2:55 PM-4 °C-7 °C80 %1019.6 hPa4 kmNNW (340°)13 km/hOvercast
3:15 PM-4 °C-7 °C80 %1020 hPa4 kmNNW (340°)14.8 km/hOvercast
3:35 PM-4 °C-7 °C80 %1020.3 hPa2.4 kmNW (320°)13 km/hOvercast
3:55 PM-4 °C-7 °C80 %1020.3 hPa1.9 kmNNW (340°)13 km/hOvercast
4:15 PM-4 °C-7 °C80 %1020.7 hPa1.6 kmNNW (330°)11.1 km/hOvercast
4:35 PM-4 °C-7 °C80 %1020.7 hPa12.9 kmNW (310°)7.4 km/hMostly Cloudy
4:55 PM-4 °C-8 °C74 %1020.7 hPa16.1 kmWNW (300°)7.4 km/hClear
5:15 PM-4 °C-8 °C74 %1020.7 hPa16.1 kmNW (320°)7.4 km/hMostly Cloudy
5:35 PM-4 °C-9 °C69 %1021 hPa16.1 kmNW (310°)7.4 km/hScattered Clouds
5:55 PM-4 °C-9 °C69 %1021.3 hPa16.1 kmNW (310°)5.6 km/hClear
6:15 PM-5 °C-9 °C74 %1021.7 hPa16.1 kmWNW (300°)9.3 km/hClear
6:35 PM-6 °C-10 °C74 %1022 hPa16.1 kmWNW (290°)9.3 km/hClear
6:55 PM-6 °C-11 °C68 %1022.7 hPa16.1 kmWNW (290°)7.4 km/hClear
7:15 PM-6 °C-11 °C68 %1023 hPa16.1 kmWNW (300°)11.1 km/hClear
7:35 PM-7 °C-11 °C74 %1023 hPa16.1 kmNW (310°)13 km/hClear
7:55 PM-7 °C-12 °C68 %1023.4 hPa16.1 kmWNW (300°)9.3 km/hClear
8:15 PM-7 °C-12 °C68 %1023 hPa16.1 kmNW (320°)11.1 km/hClear
8:35 PM-7 °C-12 °C68 %1023 hPa16.1 kmNW (320°)13 km/hClear
8:55 PM-7 °C-12 °C68 %1023.4 hPa16.1 kmNW (320°)7.4 km/hClear
9:15 PM-8 °C-12 °C73 %1023.7 hPa16.1 kmWNW (290°)7.4 km/hClear
9:35 PM-8 °C-13 °C68 %1024 hPa16.1 kmNW (310°)7.4 km/hClear
9:55 PM-8 °C-13 °C68 %1024.4 hPa16.1 kmNW (320°)13 km/hClear
10:15 PM-8 °C-13 °C68 %1024.4 hPa16.1 kmNW (320°)9.3 km/hClear
10:35 PM-8 °C-13 °C68 %1024.4 hPa16.1 kmNW (320°)9.3 km/hClear
10:55 PM-9 °C-13 °C73 %1024.4 hPa16.1 kmNW (320°)9.3 km/hClear
11:15 PM-9 °C-13 °C73 %1024.4 hPa16.1 kmNW (310°)11.1 km/hClear
11:35 PM-9 °C-14 °C68 %1024.4 hPa16.1 kmNW (310°)11.1 km/hClear
11:55 PM-9 °C-13 °C73 %1024.7 hPa16.1 kmNW (320°)5.6 km/hClear
Hourly data recorded from KMSV, located 0 kilometers away from Rock Hill, New York







STORIES FROM OUR PARTNERS